Location: Splawn
(30.9202°N, 96.9858°W)
Time: 00:54:49
(UTC+00:00)

Transit 2A Rocket - Visible Passes

Search period start: 29 February 2020 00:00
Search period end: 10 March 2020 00:00
Orbit: 591 x 912 km, 66.7° (Epoch: 28 February)

Date Brightness Start Highest point End Pass type
(mag) Time Alt. Az. Time Alt. Az. Time Alt. Az.
29 Feb 6.8 11:48:13 10° N 11:53:11 36° ENE 11:58:29 10° SE visible
01 Mar 5.9 02:18:11 10° SSW 02:20:11 27° SSW 02:20:11 27° SSW visible
01 Mar 7.6 11:06:27 10° N 11:10:29 21° ENE 11:14:42 10° ESE visible
02 Mar 5.1 01:36:11 10° S 01:40:02 34° ESE 01:40:40 32° E visible
02 Mar 7.5 03:19:54 10° W 03:20:43 13° W 03:20:43 13° W visible
02 Mar 8.0 10:25:42 10° NNE 10:27:37 12° NE 10:29:35 10° ENE visible
02 Mar 5.2 12:05:12 10° NNW 12:10:42 88° WSW 12:16:38 10° SSE visible
03 Mar 6.0 00:55:04 10° SE 00:57:42 16° ESE 01:00:23 10° ENE visible
03 Mar 6.2 02:36:05 10° WSW 02:39:53 31° WNW 02:41:19 25° NNW visible
03 Mar 6.0 11:22:49 10° NNW 11:28:10 52° ENE 11:33:52 10° SE visible
04 Mar 4.8 01:53:03 10° SSW 01:57:17 65° WNW 02:01:40 10° NNE visible
04 Mar 7.0 10:40:45 10° N 10:45:31 30° ENE 10:50:33 10° ESE visible
04 Mar 5.9 12:23:06 10° NW 12:28:02 33° WSW 12:33:16 10° S visible
05 Mar 4.5 01:10:37 10° S 01:14:48 57° ESE 01:19:06 10° NE visible
05 Mar 7.7 02:56:44 10° WNW 02:57:44 11° NW 02:58:43 10° NW visible
05 Mar 7.7 09:59:11 10° NNE 10:02:45 17° NE 10:06:28 10° E visible
05 Mar 5.2 11:40:09 10° NNW 11:45:36 60° WSW 11:51:26 10° S visible
06 Mar 7.0 02:11:39 10° WSW 02:14:53 20° NW 02:18:12 10° N visible
06 Mar 5.3 10:57:37 10° NNW 11:03:06 77° ENE 11:09:01 10° SSE visible
07 Mar 5.9 01:28:09 10° SW 01:32:10 40° WNW 01:36:21 10° N visible
07 Mar 6.2 10:18:01 27° N 10:20:30 43° ENE 10:26:05 10° SE visible
07 Mar 6.3 11:58:34 10° WNW 12:02:51 22° WSW 12:07:19 10° SSW visible
08 Mar 7.2 09:38:42 24° ENE 09:38:42 24° ENE 09:42:32 10° ESE visible
08 Mar 5.6 11:18:45 33° WNW 11:20:27 40° WSW 11:25:59 10° S visible
09 Mar 7.5 01:47:44 10° W 01:49:56 14° NW 01:52:10 10° NNW visible
09 Mar 5.6 10:39:34 49° S 10:39:34 49° S 10:43:55 10° SSE visible
